EW3808 Weather Reports


time (UTC)temp
C
wind
direction
speed
KPH
gust
KPH
rain 1hr
cm
rain 24hr
cm
rain mn
cm
humidity
%
barometer
mb
20260505124155 1 138 0.0 0.0 0.10 0.33 0.33 89 1002.2
20260505123219 1 138 0.0 0.0 0.15 0.33 0.33 89 1002.0
20260505122211 1 138 1.6 4.8 0.20 0.30 0.30 89 1001.9
20260505120048 1 149 0.0 6.4 0.00 0.23 0.23 89 1001.9
20260505115035 1 140 0.0 3.2 0.00 0.20 0.20 89 1001.9
20260505114005 2 141 0.0 6.4 0.00 0.20 0.20 89 1001.9
20260505112932 2 146 0.0 4.8 0.00 0.20 0.20 89 1001.8
20260505111936 2 139 0.0 3.2 0.00 0.20 0.20 89 1001.8
20260505110953 2 140 0.0 6.4 0.00 0.15 0.15 89 1001.7
20260505101843 3 149 3.2 11.3 0.10 0.05 0.08 85 1001.7
20260505100848 3 170 0.0 0.0 0.10 0.05 0.05 85 1001.7
20260505094653 4 171 0.0 0.0 0.00 0.00 0.00 83 1001.9
20260505093629 4 171 0.0 0.0 0.00 0.00 0.00 81 1001.8
20260505092633 4 144 0.0 8.0 0.00 0.00 0.00 80 1001.7
20260505091646 4 132 0.0 11.3 0.00 0.00 0.00 80 1001.7
20260505090621 4 139 1.6 4.8 0.00 0.00 0.00 80 1001.7
20260505085608 4 132 4.8 12.9 0.00 0.00 0.00 80 1001.7
20260505084535 4 126 6.4 14.5 0.00 0.00 0.00 80 1002.0
20260505083523 4 94 1.6 14.5 0.00 0.00 0.00 80 1001.9
20260505082538 4 113 3.2 12.9 0.00 0.00 0.00 81 1002.0
20260505081510 4 88 3.2 17.7 0.00 0.00 0.00 81 1002.0
20260505080508 5 146 6.4 17.7 0.00 0.00 0.00 81 1002.0
20260505075451 5 103 6.4 16.1 0.00 0.00 0.00 81 1002.0
20260505074510 4 118 3.2 14.5 0.00 0.00 0.00 81 1002.1
20260505073529 4 126 3.2 16.1 0.00 0.00 0.00 81 1002.2
20260505071352 4 151 6.4 16.1 0.00 0.00 0.00 82 1002.5
20260505070332 4 113 6.4 16.1 0.00 0.00 0.00 82 1002.5
20260505065316 4 142 4.8 16.1 0.00 0.00 0.00 83 1002.5
20260505062957 5 121 6.4 17.7 0.00 0.00 0.00 81 1002.6
20260505060902 5 120 8.0 19.3 0.00 0.00 0.00 79 1002.6
20260505054729 4 135 1.6 12.9 0.00 0.00 0.00 75 1002.6
20260505053749 4 144 1.6 6.4 0.00 0.00 0.00 73 1002.5
20260505052801 5 139 0.0 9.7 0.00 0.00 0.00 73 1002.5
20260505051749 5 145 0.0 0.0 0.00 0.00 0.00 73 1002.5
20260505050758 5 145 0.0 0.0 0.00 0.00 0.00 71 1002.6
20260505041545 6 12 0.0 0.0 0.00 0.00 0.00 66 1002.2
20260505040551 7 11 1.6 6.4 0.00 0.00 0.00 66 1002.1
20260505035540 7 12 1.6 11.3 0.00 0.00 0.00 65 1002.1
20260505033448 7 11 0.0 0.0 0.00 0.00 0.00 65 1001.9
20260505032415 7 11 0.0 0.0 0.00 0.00 0.00 65 1001.9
20260505031429 7 11 0.0 0.0 0.00 0.00 0.00 65 1002.0
20260505030432 7 12 0.0 0.0 0.00 0.00 0.00 65 1001.9
20260505024342 7 11 0.0 0.0 0.00 0.00 0.00 65 1001.6
20260505022144 7 11 3.2 12.9 0.00 0.00 0.00 64 1001.7
20260505021150 8 11 3.2 12.9 0.00 0.00 0.00 63 1001.6
20260505020129 8 11 1.6 9.7 0.00 0.00 0.00 60 1001.7
20260505015108 8 15 0.0 0.0 0.00 0.00 0.00 56 1001.6
20260505014040 9 15 0.0 0.0 0.00 0.00 0.00 55 1001.6
20260505013038 9 15 0.0 0.0 0.00 0.00 0.00 53 1001.5
20260505012040 10 15 0.0 1.6 0.00 0.00 0.00 53 1001.7
20260505011046 10 15 3.2 12.9 0.00 0.00 0.00 51 1001.6
20260505002657 12 297 8.0 19.3 0.00 0.00 0.00 45 1001.8
20260505001655 12 317 3.2 14.5 0.00 0.00 0.00 46 1001.7
20260505000704 11 70 1.6 11.3 0.00 0.00 0.00 40 1001.6
20260504235634 11 42 1.6 8.0 0.00 0.00 0.00 43 1001.8
20260504234645 10 129 3.2 17.7 0.00 0.00 0.00 44 1001.9
20260504233629 10 46 4.8 25.7 0.00 0.00 0.00 45 1002.1
20260504231545 10 87 8.0 19.3 0.00 0.00 0.00 46 1001.9
20260504230602 10 11 3.2 16.1 0.00 0.00 0.00 48 1001.9
20260504224410 9 12 8.0 24.1 0.00 0.00 0.00 53 1002.2
20260504223350 9 13 9.7 27.4 0.00 0.00 0.00 53 1002.2
20260504222352 10 11 6.4 29.0 0.00 0.00 0.00 53 1002.1
20260504221353 10 12 9.7 29.0 0.00 0.00 0.00 49 1002.0
20260504220416 10 11 12.9 27.4 0.00 0.00 0.00 48 1001.9
20260504215434 10 11 9.7 27.4 0.00 0.00 0.00 48 1002.1
20260504214406 10 11 11.3 24.1 0.00 0.00 0.00 47 1002.1
20260504213400 10 11 8.0 24.1 0.00 0.00 0.00 49 1002.0
20260504212415 11 11 9.7 22.5 0.00 0.00 0.00 47 1001.9
20260504211351 11 123 9.7 25.7 0.00 0.00 0.00 47 1001.8
20260504210338 10 11 11.3 25.7 0.00 0.00 0.00 49 1001.9
20260504205339 10 13 12.9 25.7 0.00 0.00 0.00 54 1002.0
20260504204327 9 12 12.9 30.6 0.00 0.00 0.00 58 1002.0
20260504203302 8 11 16.1 30.6 0.00 0.00 0.00 58 1002.4
20260504202241 8 11 12.9 27.4 0.00 0.00 0.00 55 1002.5
20260504200052 10 11 6.4 24.1 0.00 0.00 0.00 46 1002.4
20260504193938 11 15 1.6 12.9 0.00 0.00 0.00 44 1002.3
20260504192921 11 14 3.2 12.9 0.00 0.00 0.00 43 1002.2
20260504185656 12 15 3.2 16.1 0.00 0.00 0.00 40 1002.1
20260504184631 12 14 0.0 6.4 0.00 0.00 0.00 34 1002.0
20260504183653 12 14 0.0 0.0 0.00 0.00 0.00 32 1002.0
20260504182655 12 14 0.0 0.0 0.00 0.00 0.00 30 1002.0
20260504181622 12 13 3.2 16.1 0.00 0.00 0.00 32 1002.0
20260504180627 13 9 9.7 17.7 0.00 0.00 0.00 33 1002.1
20260504175651 14 332 4.8 19.3 0.00 0.00 0.00 35 1002.2
20260504174619 13 335 8.0 19.3 0.00 0.00 0.00 36 1002.2
20260504173606 14 9 6.4 17.7 0.00 0.00 0.00 35 1002.4
20260504171421 13 12 3.2 11.3 0.00 0.00 0.00 37 1002.5
20260504170352 13 296 4.8 16.1 0.00 0.00 0.00 37 1002.7
20260504150352 11 323 1.6 8.0 0.00 0.00 0.00 45 1003.1
20260504140348 7 166 1.6 4.8 0.00 0.00 0.00 61 1003.2
20260504130325 5 165 4.8 8.0 0.00 0.00 0.00 65 1003.6